Weather History for KLXT - December, 2012

Change the Weather History Date:

Monday, December 3, 2012

  Actual Average (KOJC) Record (KOJC)
Temperature  
Mean Temperature 62 °F 36 °F  
Max Temperature 70 °F 45 °F - ()
Min Temperature 52 °F 27 °F - ()
Degree Days  
Heating Degree Days 4 29  
Month to date heating degree days 86  
Since 1 July heating degree days 1041  
Cooling Degree Days 0 0  
Month to date cooling degree days 0  
Year to date cooling degree days 1349  
Growing Degree Days 12 (Base 50)    
Moisture  
Dew Point 52 °F    
Average Humidity 67    
Maximum Humidity 84    
Minimum Humidity 50    
Precipitation  
Precipitation 0.00 in 0.05 in - ()
Month to date precipitation 0.17  
Year to date precipitation 38.57  
Sea Level Pressure  
Sea Level Pressure 29.83 in    
Wind  
Wind Speed 15 mph (SSW)    
Max Wind Speed 26 mph    
Max Gust Speed 39 mph    
Visibility 10 miles    
Events      
T = Trace of Precipitation, MM = Missing Value Source: NWS Daily Summary

Daily Weather History Graph

Daily Weather History Graph

Search for Another Location

Airport or City:

Trip Planner

Search our weather history database for the weather conditions in past years. The results will help you decide how hot, cold, wet, or windy it might be!

Date:

Astronomy

Dec. 03, 2012 Rise Set
Actual Time 7:19 AM CST 4:55 PM CST
Civil Twilight 6:50 AM CST 5:24 PM CST
Nautical Twilight 6:16 AM CST 5:58 PM CST
Astronomical Twilight 5:44 AM CST 6:30 PM CST
Moon 9:41 PM CST (12/3) 10:44 AM CST (12/3)
Length of Visible Light 10h 34m
Length of Day
9h 35m
Waning Gibbous, 78% of the Moon is Illuminated
Dec 3
Waning Gibbous
Dec 6
Last Quarter
Dec 13
New
Dec 19
First Quarter
Dec 28
Full

Hourly Weather History & Observations

Time (CST) Temp. Dew Point Humidity Pressure Visibility Wind Dir Wind Speed Gust Speed Precip Events Conditions
12:53 AM 61.0 °F 55.9 °F 83% 29.85 in 10.0 mi South 11.5 mph - N/A   Clear
1:53 AM 62.1 °F 57.0 °F 84% 29.83 in 10.0 mi South 15.0 mph 23.0 mph N/A   Clear
2:53 AM 62.1 °F 57.0 °F 84% 29.82 in 10.0 mi South 16.1 mph 27.6 mph N/A   Clear
3:53 AM 62.1 °F 57.0 °F 84% 29.78 in 10.0 mi South 15.0 mph - N/A   Clear
4:53 AM 62.1 °F 57.0 °F 84% 29.76 in 10.0 mi South 16.1 mph 24.2 mph N/A   Clear
6:53 AM 63.0 °F 57.0 °F 81% 29.74 in 10.0 mi South 17.3 mph 27.6 mph N/A   Clear
7:41 AM 64.4 °F 57.2 °F 77% 29.76 in 10.0 mi South 16.1 mph 24.2 mph N/A   Mostly Cloudy
7:53 AM 64.0 °F 57.0 °F 78% 29.76 in 10.0 mi South 16.1 mph 23.0 mph N/A   Overcast
8:53 AM 66.0 °F 57.9 °F 75% 29.75 in 10.0 mi South 20.7 mph 27.6 mph N/A   Mostly Cloudy
9:53 AM 68.0 °F 57.0 °F 68% 29.75 in 10.0 mi SSW 13.8 mph 32.2 mph N/A   Mostly Cloudy
10:33 AM 69.8 °F 55.4 °F 60% 29.77 in 10.0 mi SSW 26.5 mph 39.1 mph N/A   Overcast
10:53 AM 69.1 °F 55.9 °F 63% 29.75 in 10.0 mi SSW 21.9 mph 34.5 mph N/A   Overcast
11:53 AM 69.1 °F 55.0 °F 61% 29.76 in 10.0 mi SSW 24.2 mph 36.8 mph N/A   Overcast
12:53 PM 69.1 °F 55.0 °F 61% 29.76 in 10.0 mi SW 19.6 mph 36.8 mph N/A   Mostly Cloudy
1:53 PM 70.0 °F 55.0 °F 59% 29.77 in 10.0 mi SW 21.9 mph 32.2 mph N/A   Mostly Cloudy
2:53 PM 69.1 °F 55.9 °F 63% 29.78 in 10.0 mi SSW 11.5 mph - N/A   Overcast
3:53 PM 69.1 °F 55.9 °F 63% 29.80 in 10.0 mi SSW 9.2 mph - N/A   Mostly Cloudy
4:53 PM 68.0 °F 55.9 °F 65% 29.83 in 10.0 mi SSW 11.5 mph - N/A   Partly Cloudy
5:53 PM 61.0 °F 42.1 °F 50% 29.90 in 10.0 mi North 12.7 mph - N/A   Mostly Cloudy
6:53 PM 57.9 °F 41.0 °F 53% 29.94 in 10.0 mi NNW 13.8 mph - N/A   Overcast
7:53 PM 57.9 °F 41.0 °F 53% 29.96 in 10.0 mi North 13.8 mph - N/A   Overcast
8:53 PM 57.0 °F 39.9 °F 53% 29.97 in 10.0 mi North 12.7 mph - N/A   Mostly Cloudy
9:53 PM 55.9 °F 39.0 °F 53% 30.00 in 10.0 mi North 16.1 mph 24.2 mph N/A   Overcast
10:53 PM 53.1 °F 37.0 °F 55% 30.02 in 10.0 mi North 10.4 mph - N/A   Partly Cloudy
11:53 PM 52.0 °F 35.1 °F 53% 30.04 in 10.0 mi North 10.4 mph - N/A   Clear